Miscellaneous Local Product
Issued by NWS North Platte, NE

Home | Current Version | Previous Version | Text Only | Print | Product List | Glossary On
Versions: 1 2 3 4 5 6 7 8 9 10 11 12 13 14 15 16 17 18 19 20 21 22 23 24 25 26 27 28 29 30 31 32 33 34 35 36 37 38 39 40 41 42 43 44 45 46 47 48 49 50
000
AXUS43 KLBF 041410
MISLBF


WESTERN AND NORTH CENTRAL NEBRASKA HOURLY WEATHER ROUNDUP
NATIONAL WEATHER SERVICE NORTH PLATTE NE
900 AM CDT FRI SEP 04 2015

NOTE: "FAIR" INDICATES FEW OR NO CLOUDS BELOW 12,000 FEET WITH NO
SIGNIFICANT WEATHER AND/OR OBSTRUCTIONS TO VISIBILITY.

NOTE: STATIONS NOT REPORTING VARIABLES SUCH AS SKY/WEATHER OR
PRESSURE ARE PROVIDED BY THE NEBRASKA DEPARTMENT OF
ROADS...RAWS...AND APRS NETWORKS...AND ARE NOT UNDER
NATIONAL WEATHER SERVICE QUALITY CONTROL.

...OBSERVATIONS IN AND NEAR THE EASTERN PANHANDLE OF NEBRASKA...

CITY           SKY/WX    TMP DP  RH WIND       PRES   REMARKS
PINE RIDGE     SUNNY     67  57  70 E3        29.85R
CHADRON        SUNNY     66  54  65 SW6       29.85R
ALLIANCE       SUNNY     62  54  74 CALM      29.90R
SIDNEY         SUNNY     63  49  60 W10       29.94R
CRESCENT LAKE    N/A     69  57  65 CALM        N/A
BIG SPRINGS      N/A     62  57  84 W5          N/A
$$

...OBSERVATIONS IN NORTH CENTRAL NEBRASKA...

CITY           SKY/WX    TMP DP  RH WIND       PRES   REMARKS
VALENTINE      MOSUNNY   68  63  84 SW5       29.82R
THEDFORD       SUNNY     71  65  80 CALM      29.85S
AINSWORTH      MOSUNNY   72  65  79 S10       29.82S
O`NEILL        CLOUDY    73  66  79 E9        29.85S
ORD            PTSUNNY   73  64  73 SE9       29.84R
BROKEN BOW     MOSUNNY   73  63  70 S6        29.85R
SPRINGVIEW       N/A     71  65  82 CALM        N/A
SARGENT          N/A     70  64  81 CALM        N/A
CHAMBERS         N/A     75  64  70 MISG        N/A
EWING            N/A     72  64  75 S5G12       N/A
$$

...OBSERVATIONS IN SOUTHWEST NEBRASKA AND FAR NORTHEAST COLORADO...

CITY           SKY/WX    TMP DP  RH WIND       PRES   REMARKS
WRAY           CLOUDY    65  57  74 W6        29.93R
HOLYOKE        FAIR      68  54  60 W9        29.92R
IMPERIAL       SUNNY     66  56  70 NW12      29.88R
OGALLALA       SUNNY     62  58  88 SW3       29.88S
NORTH PLATTE   SUNNY     65  62  90 E3        29.84R
MCCOOK         PTSUNNY   73  62  68 S7        29.83R
LEXINGTON      MOSUNNY   75  62  62 S12G17    29.84R
PAXTON           N/A     64  62  92 CALM        N/A
BRADY            N/A     65  61  88 CALM        N/A
CALLAWAY         N/A     69  67  95 SE5         N/A
$$

...OBSERVATIONS IN CENTRAL LINCOLN COUNTY AREA...

CITY           SKY/WX    TMP DP  RH WIND       PRES   REMARKS
N.P. AIRPORT   SUNNY     65  62  90 E3        29.84R
N.P. DOWNTOWN    N/A     73  64  73 CALM        N/A
N.P. SOUTHEAST   N/A     68  63  83 CALM        N/A
N.P. HILLCREST   N/A     72  64  75 CALM        N/A
$$

...SOME OBSERVATIONS FROM AROUND THE REGION...

CITY           SKY/WX    TMP DP  RH WIND       PRES   REMARKS
DENVER         MOSUNNY   59  48  67 SW10      30.02R
LARAMIE        SUNNY     57  47  69 SW14      30.13S
CHEYENNE       SUNNY     62  44  51 SW8       30.05R
SCOTTSBLUFF    SUNNY     61  55  81 SW3       29.92R
RAPID CITY     SUNNY     64  56  75 SE3       29.81R
PIERRE         CLOUDY    73  66  78 CALM      29.74R
WINNER         FAIR      77  63  61 S8        29.78S
SIOUX FALLS    CLOUDY    75  67  76 S10       29.86R
OMAHA          CLOUDY    75  69  81 S12       29.93S
GRAND ISLAND   CLOUDY    76  64  66 S23G30    29.87R
KANSAS CITY    MOSUNNY   79  68  69 S12       29.99R
WICHITA        MOSUNNY   77  65  66 S10       29.96R
HAYS           MOSUNNY   79  59  50 S21G30    29.86R
LIBERAL        SUNNY     72  57  60 S12       29.94R
GOODLAND       SUNNY     70  53  54 NW13      29.92R
$$



USA.gov is the U.S. government's official web portal to all federal, state and local government web resources and services.